(465617) 2009 EK1
ephemeris date magn radius delta ra dec elong phase
Today5 Sep 202623.00.957 AU0.657 AU06h26m+28°26'66.3°74.8°
(465617) 2009 EK1 - 2026-09-05
astro.vanbuitenen.nl


 
-1 year
-1 month
-1 day
Now
+1 day
+1 month
+1 year

The interactive orbit chart above shows the body's path through the solar system and its position at the given date. Green and blue lines are shown perpendicular to the ecliptic plane: Green if the path is above the ecliptic plane, blue if it is below. (Left-click and drag to rotate the view; Right-click and drag to move the view; Use scroll wheel to zoom in our out.)

The orbital elements of 2009 EK1 are:

            e (Eccentricity)                : 0.2290458
            a (Semimajor axis)              : 1.2409052
            i (Inclination)                 : 9.12451
            Ω (Longitude of ascending node) : 358.37440
            ω (Argument of perihelion)      : 21.86971
            M (Mean anomaly)                : 297.82624
            Epoch                           : 2026 Jun 09

            L (Longitude of perihelion)     : 19.99304
            B (Latitude of perihelion)      : 3.38648
            P (Orbital period in years)     : 1.38            
        

The light curve chart below shows the estimated development of the minor planet's magnitude.


The all-sky chart below shows the path of the minor planet over the same period as the light curve. The current position is marked yellow.





The following chart shows the path of the minor planet in the next few days. The field of view is optimized for (~10x50) binoculars and finderscopes.




Ephemerides:
Date       Time       RA (2000)    DEC (2000)    delta   radius  elong  phase   PA    magn
2026-09-05 00:00 UT   06 26 51.5   +28 26 04     0.657    0.957   66.3   74.8   275   23.0 
2026-09-05 03:18 UT   06 27 30.4   +28 27 31     0.657    0.957   66.3   74.8   275   23.0 
2026-09-06 00:00 UT   06 31 33.9   +28 36 19     0.660    0.957   66.2   74.6   276   23.0 
2026-09-07 00:00 UT   06 36 15.7   +28 45 52     0.663    0.957   66.2   74.5   276   23.0 
2026-09-08 00:00 UT   06 40 56.6   +28 54 41     0.667    0.957   66.1   74.3   277   23.0 
2026-09-09 00:00 UT   06 45 36.6   +29 02 47     0.670    0.958   66.1   74.1   277   23.0 
2026-09-10 00:00 UT   06 50 15.6   +29 10 11     0.673    0.958   66.1   74.0   278   23.0 
2026-09-11 00:00 UT   06 54 53.6   +29 16 54     0.676    0.958   66.1   73.8   278   23.0 
2026-09-12 00:00 UT   06 59 30.5   +29 22 55     0.679    0.959   66.0   73.6   279   23.0 
2026-09-13 00:00 UT   07 04 06.2   +29 28 16     0.683    0.960   66.0   73.4   279   23.0 


    Terminology:
            
    delta:  distance between minor planet and earth in AU
    radius: distance between minor planet and sun in AU
    magn:   magnitude (brightness) estimate    
    ra:     right ascension in hours (24h = 360deg)
    dec:    declination in degrees
    elong:  elongation in degrees (angle sun-earth-minor planet)    
    phase:  phase angle in degrees (angle sun-minor planet-earth)        
    AU:     Astronomical Unit (mean distance between earth and sun: 149597870.7 km
    

Orbital elements provided by the MPC (Minor Planet Center).
Calculations by a modified version of AAPlus, a C# implementation of the AA+ project by PJ Naughter from the algorithms presented in the book "Astronomical Algorithms" by Jean Meeus.
NGC2000 dso catalog and star labels from VizieR as provided by the Strasbourg astronomical Data Center.
Tycho2 catalog from the ESO archive.